Location: STAR School
(35.3054°N, 111.2976°W)
Time: 13:23:46
(UTC-07:00)

A-11 Canister half - Visible Passes

Search period start: 20 May 2019 00:00
Search period end: 30 May 2019 00:00
Orbit: 1517 x 1683 km, 47.2° (Epoch: 19 May)

Date Brightness Start Highest point End Pass type
(mag) Time Alt. Az. Time Alt. Az. Time Alt. Az.
20 May 9.2 01:25:24 10° NW 01:34:41 68° NNE 01:44:12 10° ESE visible
20 May 9.2 03:30:38 10° WNW 03:39:20 44° SW 03:48:18 10° SSE visible
20 May 9.7 20:49:47 10° W 20:58:47 52° NNW 21:07:47 10° NE visible
20 May 10.0 22:56:51 10° WNW 23:05:24 40° N 23:14:04 10° ENE visible
21 May 9.2 01:02:30 10° NW 01:11:44 65° NNE 01:21:11 10° ESE visible
21 May 9.1 03:07:40 10° WNW 03:16:28 47° SW 03:25:32 10° SSE visible
21 May 9.7 20:26:45 10° W 20:35:49 54° NNW 20:44:51 10° NE visible
21 May 10.0 22:33:51 10° WNW 22:42:24 39° N 22:51:01 10° ENE visible
22 May 9.3 00:39:36 10° NW 00:48:47 62° NNE 00:58:11 10° ESE visible
22 May 9.0 02:44:43 10° WNW 02:53:36 50° SW 03:02:46 10° SSE visible
22 May 9.7 20:03:44 10° W 20:12:51 56° NNW 20:21:56 10° NE visible
22 May 10.1 22:10:51 10° WNW 22:19:23 39° N 22:27:58 10° ENE visible
23 May 9.3 00:16:41 10° NW 00:25:50 60° NNE 00:35:09 10° ESE visible
23 May 9.0 02:21:46 10° WNW 02:30:44 54° SW 02:39:58 10° SSE visible
23 May 10.3 04:31:58 10° WSW 04:34:14 11° WSW 04:36:31 10° SW visible
23 May 9.7 19:40:43 10° WSW 19:49:54 58° NNW 19:59:00 10° NE visible
23 May 10.1 21:47:50 10° WNW 21:56:22 39° N 22:04:57 10° ENE visible
23 May 9.4 23:53:47 10° NW 00:02:53 57° NNE 00:11:43 12° ESE visible
24 May 8.9 01:58:49 10° WNW 02:07:52 57° SW 02:09:33 51° S visible
24 May10.504:16:27SSW04:16:27SSW04:07:24Wvisible
24 May 10.1 21:24:48 10° WNW 21:33:21 39° N 21:41:56 10° ENE visible
24 May 9.4 23:30:52 10° NW 23:39:55 55° NNE 23:47:09 18° E visible
25 May 8.8 01:35:54 10° WNW 01:44:59 61° SW 01:45:10 61° SW visible
25 May 10.1 21:01:47 10° WNW 21:10:21 40° N 21:18:55 10° ENE visible
25 May 9.5 23:07:56 10° NW 23:16:57 53° NNE 23:23:50 19° E visible
26 May 8.8 01:12:58 10° WNW 01:21:55 65° SW 01:21:55 65° SW visible
26 May 10.1 20:38:44 10° WNW 20:47:20 40° N 20:55:55 10° ENE visible
26 May 9.5 22:45:01 10° NW 22:53:58 51° NNE 23:00:58 18° E visible
27 May 8.8 00:50:03 10° WNW 00:59:05 69° SW 00:59:05 69° SW visible
27 May 10.1 20:15:42 10° WNW 20:24:19 40° N 20:32:54 10° ENE visible
27 May 9.6 22:22:04 10° NW 22:31:00 50° NNE 22:38:21 16° E visible
28 May 8.7 00:27:07 10° WNW 00:36:20 73° SW 00:36:29 73° SSW visible
28 May 10.7 02:34:10 10° W 02:34:36 11° W 02:34:36 11° W visible
28 May 10.1 19:52:39 10° WNW 20:01:19 41° N 20:09:55 10° ENE visible
28 May 9.6 21:59:08 10° NW 22:08:01 48° NNE 22:15:53 14° E visible
29 May 8.7 00:04:12 10° WNW 00:13:27 77° SW 00:14:02 75° S visible
29 May 10.6 02:10:57 10° W 02:12:10 13° W 02:12:10 13° W visible
29 May 9.7 21:36:11 10° NW 21:45:02 47° NNE 21:53:33 11° E visible
29 May 8.7 23:41:17 10° WNW 23:50:33 81° SW 23:51:41 71° SSE visible
